Regional Weather Roundup
Issued by NWS Memphis, TN

Home | Current Version | Previous Version | Text Only | Print | Product List | Glossary On
Versions: 1 2 3 4 5 6 7 8 9 10 11 12 13 14 15 16 17 18 19 20 21 22 23 24 25 26 27 28 29 30 31 32 33 34 35 36 37 38 39 40 41 42 43 44 45 46 47 48 49 50
000
ASUS44 KMEG 172210
RWRMEG
MEMPHIS CWA HOURLY WEATHER ROUNDUP
NATIONAL WEATHER SERVICE MEMPHIS TN
400 PM CST SUN DEC 17 2017

...WEST TENNESSEE...

CITY           SKY/WX    TMP DP  RH WIND       PRES   REMARKS
MEMPHIS INTL   CLOUDY    48  45  89 SW3       30.10R
NWS MEMPHIS      N/A     48 N/A N/A MISG        N/A
JACKSON        CLOUDY    48  47  96 CALM      30.09F FOG
COVINGTON      CLOUDY    46  45  93 CALM      30.10R
SOMERVILLE     CLOUDY    48  46  93 CALM      30.07S FOG
BOLIVAR        CLOUDY    48  46  93 CALM      30.08F
LEXINGTON      CLOUDY    46  46 100 CALM      30.10R FOG
SELMER         CLOUDY    48  46  93 CALM      30.09S FOG
SAVANNAH       CLOUDY    48  46  93 CALM      30.10R
DYERSBURG      CLOUDY    47  44  90 CALM      30.10S
UNION CITY     CLOUDY    48  45  87 S3        30.09R
PARIS          CLOUDY    46  45  93 S3        30.08S FOG
HUNTINGDON     CLOUDY    46  45  93 S3        30.08S


...EASTERN ARKANSAS...

CITY           SKY/WX    TMP DP  RH WIND       PRES   REMARKS
JONESBORO      CLOUDY    49  45  86 S5        30.10R
WEST MEMPHIS   CLOUDY    46  46 100 CALM      30.09R
BATESVILLE     CLOUDY    48  45  89 CALM      30.09R
NEWPORT        CLOUDY    47  44  90 CALM      30.10R
WALNUT RIDGE   CLOUDY    47  43  86 S6        30.09R
BLYTHEVILLE    CLOUDY    47  46  97 S6        30.10R
SEARCY         CLOUDY    46  46 100 CALM      30.10R
STUTTGART      CLOUDY    45  43  93 CALM      30.12R
PINE BLUFF     CLOUDY    45  43  93 CALM      30.11R
MONTICELLO     CLOUDY    46  44  93 CALM      30.10R


...NORTH MISSISSIPPI...

CITY           SKY/WX    TMP DP  RH WIND       PRES   REMARKS
TUPELO         CLOUDY    47  45  93 E3        30.11S FOG
BATESVILLE     CLOUDY    49  46  90 CALM      30.11R FOG
OLIVE BRANCH   CLOUDY    46  46 100 CALM      30.08S
TUNICA           N/A    N/A N/A N/A CALM      30.11S
CLARKSDALE     CLOUDY    46  46 100 CALM      30.11R
CORINTH        CLOUDY    48  46  93 S6        30.10R FOG
GREENWOOD      CLOUDY    52  50  93 NE3       30.10R
COLUMBUS       CLOUDY    52  52 100 CALM      30.11S FOG
STARKVILLE     CLOUDY    50  48  93 CALM      30.12R FOG
GOLDEN TRIANGL CLOUDY    51  49  92 SE6       30.12R


...SOUTHEAST MISSOURI...

CITY           SKY/WX    TMP DP  RH WIND       PRES   REMARKS
KENNETT        CLOUDY    48  45  87 CALM      30.09R
MALDEN         CLOUDY    48  43  81 S6        30.10R
WEST PLAINS    CLOUDY    46  44  93 S3        30.05R
POPLAR BLUFF   CLOUDY    47  44  90 S5        30.08R
CAPE GIRARDEAU CLOUDY    46  42  86 S7        30.08R


...NORTHWEST ALABAMA...

CITY           SKY/WX    TMP DP  RH WIND       PRES   REMARKS
MUSCLE SHOALS  CLOUDY    49  45  86 N3        30.13R


...MIDDLE TENNESSEE...

CITY           SKY/WX    TMP DP  RH WIND       PRES   REMARKS
NASHVILLE      CLOUDY    47  44  90 S6        30.12R FOG
CLARKSVILLE    CLOUDY    44  41  89 SE5       30.10S FOG
COLUMBIA       CLOUDY    46  46 100 CALM      30.09S FOG


...WESTERN KENTUCKY...

CITY           SKY/WX    TMP DP  RH WIND       PRES   REMARKS
PADUCAH        CLOUDY    47  41  80 SE5       30.08S
FORT CAMPBELL  CLOUDY    44  44  99 CALM      30.09S FOG


...CENTRAL ARKANSAS...

CITY           SKY/WX    TMP DP  RH WIND       PRES   REMARKS
LITTLE ROCK    CLOUDY    46  46 100 S3        30.10S FOG


SKY/WX REPORTED AS FAIR MEANS FEW OR NO CLOUDS BELOW
12 THOUSAND FEET.




USA.gov is the U.S. government's official web portal to all federal, state and local government web resources and services.